Weather reports worldwide

Advertisment
Kleine Brogel, Belgium (6479): temperature & dewpoint: 19.09.2018 23:00:00 - 25.09.2018 23:00:00 (CEST)Kleine Brogel, Belgium (6479): wind speed & gusts: 19.09.2018 23:00:00 - 25.09.2018 23:00:00 (CEST)Kleine Brogel, Belgium (6479): wind direction: 19.09.2018 23:00:00 - 25.09.2018 23:00:00 (CEST)Kleine Brogel, Belgium (6479): reduced air pressure: 19.09.2018 23:00:00 - 25.09.2018 23:00:00 (CEST)Kleine Brogel, Belgium (6479): visibility: 19.09.2018 23:00:00 - 25.09.2018 23:00:00 (CEST)
Date & Time tt [°C] td [°C] ff [km/h] ff [kn] fx [km/h] fx [kn] dd ppp [hPa] vv [km]
25.09.2018 23:00:00 6,2 4,8 0 0 - - N 1037,7 20
25.09.2018 22:00:00 7,0 5,3 4 2 4 2 N 1038,0 20
25.09.2018 21:00:00 8,1 5,5 4 2 4 2 N 1038,2 20
25.09.2018 20:00:00 9,8 5,4 4 2 - - N 1038,0 20
25.09.2018 19:00:00 13,1 4,8 4 2 11 6 N 1037,7 20
25.09.2018 18:00:00 14,3 4,0 4 2 14 8 N 1037,5 20
25.09.2018 17:00:00 15,5 4,4 7 4 - - ENE 1038,0 20
25.09.2018 16:00:00 15,5 3,3 7 4 18 10 E 1038,5 20
25.09.2018 15:00:00 15,2 4,7 7 4 14 8 ENE 1039,4 20
25.09.2018 14:00:00 15,4 5,5 4 2 - - N 1039,9 20
25.09.2018 13:00:00 14,7 4,9 4 2 11 6 N 1040,2 20
25.09.2018 12:00:00 13,8 4,7 4 2 7 4 N 1040,4 20
25.09.2018 11:00:00 12,9 6,8 4 2 - - N 1040,2 20
25.09.2018 10:00:00 - - - - - - - - -
25.09.2018 09:00:00 6,4 4,4 4 2 4 2 N 1039,4 7
25.09.2018 08:00:00 5,4 2,7 4 2 - - N 1039,1 6
25.09.2018 07:00:00 - - - - - - - - -
25.09.2018 06:00:00 5,3 2,1 4 2 4 2 N 1038,7 8
25.09.2018 05:00:00 - - - - - - - - -
25.09.2018 04:00:00 - - - - - - - - -
25.09.2018 03:00:00 3,8 3,2 4 2 7 4 N 1038,9 12
25.09.2018 02:00:00 4,0 3,6 7 4 - - WSW 1038,8 10
25.09.2018 01:00:00 - - - - - - - - -
25.09.2018 00:00:00 - - - - - - - - -
24.09.2018 23:00:00 - - - - - - - - -
24.09.2018 22:00:00 - - - - - - - - -
24.09.2018 21:00:00 - - - - - - - - -
24.09.2018 20:00:00 - - - - - - - - -
24.09.2018 19:00:00 - - - - - - - - -
24.09.2018 18:00:00 - - - - - - - - -
24.09.2018 17:00:00 - - - - - - - - -
24.09.2018 16:00:00 - - - - - - - - -
24.09.2018 15:00:00 - - - - - - - - -
24.09.2018 14:00:00 - - - - - - - - -
24.09.2018 13:00:00 - - - - - - - - -
24.09.2018 12:00:00 13,2 7,8 11 6 18 10 W 1035,0 20
24.09.2018 11:00:00 11,3 8,5 7 4 - - W 1034,7 20
24.09.2018 10:00:00 10,6 9,0 14 8 18 10 WSW 1034,2 20
24.09.2018 09:00:00 7,8 7,1 14 8 18 10 WSW 1033,2 15
24.09.2018 08:00:00 6,6 6,4 4 2 - - N 1032,9 10
24.09.2018 07:00:00 6,8 6,3 7 4 14 8 WSW 1031,9 8
24.09.2018 06:00:00 6,0 5,4 11 6 14 8 WSW 1031,2 15
24.09.2018 05:00:00 5,5 4,9 7 4 - - WSW 1030,4 20
24.09.2018 04:00:00 6,0 5,5 4 2 11 6 N 1029,7 14
24.09.2018 03:00:00 6,5 6,1 7 4 11 6 WSW 1029,2 14
24.09.2018 02:00:00 6,9 6,2 7 4 - - WSW 1027,7 5
24.09.2018 01:00:00 7,5 7,0 4 2 14 8 N 1026,7 19
24.09.2018 00:00:00 8,3 7,7 7 4 14 8 W 1025,5 12
23.09.2018 23:00:00 9,1 8,5 7 4 - - N 1024,2 19
23.09.2018 22:00:00 9,1 8,4 4 2 11 6 N 1022,6 20
23.09.2018 21:00:00 9,0 8,3 7 4 14 8 W 1021,1 20
23.09.2018 20:00:00 9,1 8,2 7 4 - - NW 1019,3 20
23.09.2018 19:00:00 9,6 9,0 7 4 32 18 NNW 1017,2 20
23.09.2018 18:00:00 10,0 9,0 11 6 25 14 NNW 1015,5 8
23.09.2018 17:00:00 10,7 9,8 14 8 - - N 1013,2 20
23.09.2018 16:00:00 10,7 10,1 14 8 25 14 N 1012,2 9
23.09.2018 15:00:00 11,0 10,7 14 8 32 18 N 1010,3 12
23.09.2018 14:00:00 11,3 11,0 14 8 - - N 1010,8 9
23.09.2018 13:00:00 11,4 11,2 14 8 22 12 NNE 1009,1 6
23.09.2018 12:00:00 11,7 11,2 7 4 11 6 NE 1010,1 4,8
23.09.2018 11:00:00 11,8 11,6 7 4 - - NE 1011,0 2,1
23.09.2018 10:00:00 11,6 11,5 7 4 11 6 NE 1011,3 3,5
23.09.2018 09:00:00 11,2 11,1 7 4 14 8 NE 1012,0 4,3
23.09.2018 08:00:00 11,0 10,9 7 4 - - NE 1012,1 4,5
23.09.2018 07:00:00 10,8 10,7 7 4 14 8 ENE 1012,5 5
23.09.2018 06:00:00 10,8 10,6 11 6 18 10 ENE 1012,3 3,7
23.09.2018 05:00:00 10,7 10,6 11 6 - - ENE 1013,3 3,0
23.09.2018 04:00:00 10,6 10,4 7 4 11 6 ENE 1014,3 3,6
23.09.2018 03:00:00 10,5 10,3 7 4 14 8 N 1015,1 3,3
23.09.2018 02:00:00 10,4 10,2 4 2 - - N 1016,2 3,9
23.09.2018 01:00:00 10,3 9,9 4 2 7 4 N 1017,1 3,3
23.09.2018 00:00:00 10,4 10,0 4 2 7 4 N 1017,8 7
22.09.2018 23:00:00 10,3 9,8 4 2 - - N 1018,7 8
22.09.2018 22:00:00 10,6 10,2 4 2 11 6 N 1019,3 10
22.09.2018 21:00:00 10,8 10,3 4 2 11 6 N 1019,5 10
22.09.2018 20:00:00 11,0 10,2 4 2 - - N 1019,6 20
22.09.2018 19:00:00 11,3 10,5 7 4 18 10 SSW 1019,6 19
22.09.2018 18:00:00 12,0 10,7 14 8 25 14 WSW 1020,2 20
22.09.2018 17:00:00 13,5 11,6 14 8 - - SW 1020,2 20
22.09.2018 16:00:00 13,1 11,6 14 8 22 12 SSW 1020,1 20
22.09.2018 15:00:00 13,0 11,2 14 8 40 21 SW 1020,7 20
22.09.2018 14:00:00 15,3 9,4 14 8 - - SW 1020,2 20
22.09.2018 13:00:00 15,4 8,9 25 14 32 18 WSW 1020,5 20
22.09.2018 12:00:00 15,2 10,2 18 10 32 18 SW 1020,7 20
22.09.2018 11:00:00 14,8 9,0 18 10 - - SW 1021,1 20
22.09.2018 10:00:00 13,2 8,4 18 10 29 16 SW 1021,0 20
22.09.2018 09:00:00 11,0 8,0 11 6 22 12 SW 1021,0 20
22.09.2018 08:00:00 10,3 7,9 14 8 - - SW 1020,8 20
22.09.2018 07:00:00 10,5 7,7 14 8 22 12 SW 1020,3 20
22.09.2018 06:00:00 10,8 7,4 14 8 22 12 SW 1020,0 20
22.09.2018 05:00:00 11,6 7,4 18 10 - - SW 1019,7 20
22.09.2018 04:00:00 12,1 7,4 11 6 32 18 SSW 1019,7 20
22.09.2018 03:00:00 12,3 7,3 22 12 32 18 WSW 1019,1 20
22.09.2018 02:00:00 13,1 7,4 22 12 - - WSW 1018,3 20
22.09.2018 01:00:00 13,3 7,4 29 16 40 21 WSW 1017,6 20
22.09.2018 00:00:00 13,0 7,0 25 14 43 23 WSW 1016,7 20
21.09.2018 23:00:00 13,2 6,1 25 14 - - SW 1015,7 20
21.09.2018 22:00:00 13,8 5,3 32 18 50 27 WSW 1015,2 20
21.09.2018 21:00:00 14,5 4,4 32 18 54 29 WSW 1014,2 20
21.09.2018 20:00:00 15,0 4,1 32 18 - - WSW 1013,2 20
21.09.2018 19:00:00 15,6 4,0 25 14 47 25 WSW 1012,6 20
21.09.2018 18:00:00 16,2 3,5 29 16 47 25 WSW 1012,2 20
21.09.2018 17:00:00 16,8 3,7 25 14 - - W 1011,8 20
21.09.2018 16:00:00 17,1 4,1 36 19 54 29 WSW 1011,3 20
21.09.2018 15:00:00 16,9 8,1 25 14 47 25 WSW 1010,6 20
21.09.2018 14:00:00 15,6 6,9 22 12 - - W 1009,7 20
21.09.2018 13:00:00 15,3 10,7 18 10 40 21 W 1008,5 20
21.09.2018 12:00:00 - - - - - - - - -
21.09.2018 11:00:00 - - - - - - - - -
21.09.2018 10:00:00 - - - - - - - - -
21.09.2018 09:00:00 - - - - - - - - -
21.09.2018 08:00:00 19,9 11,6 29 16 - - SW 1003,3 20
21.09.2018 07:00:00 20,2 11,1 25 14 40 21 SSW 1003,5 20
21.09.2018 06:00:00 19,5 11,9 25 14 43 23 SSW 1004,2 20
21.09.2018 05:00:00 19,2 12,2 14 8 - - SSW 1004,7 20
21.09.2018 04:00:00 19,6 12,1 14 8 29 16 SSW 1006,1 20
21.09.2018 03:00:00 19,5 12,5 11 6 22 12 SSW 1007,2 20
21.09.2018 02:00:00 19,7 12,7 11 6 - - S 1008,1 20
21.09.2018 01:00:00 19,7 12,6 11 6 22 12 SSW 1009,0 20
21.09.2018 00:00:00 19,7 12,3 11 6 18 10 SSW 1009,6 20
20.09.2018 23:00:00 20,1 11,8 7 4 - - SSW 1010,6 20
20.09.2018 22:00:00 20,7 11,8 11 6 18 10 SSW 1011,5 20
20.09.2018 21:00:00 21,5 12,4 7 4 14 8 SSW 1011,8 20
20.09.2018 20:00:00 21,7 12,6 4 2 - - N 1012,2 20
20.09.2018 19:00:00 23,2 12,4 11 6 29 16 SSW 1012,7 20
20.09.2018 18:00:00 24,2 12,4 11 6 36 19 SSW 1013,5 20
20.09.2018 17:00:00 24,9 12,1 22 12 - - SW 1014,2 20
20.09.2018 16:00:00 25,0 11,9 18 10 40 21 SSW 1015,1 20
20.09.2018 15:00:00 24,9 12,0 18 10 43 23 SSW 1015,7 20
20.09.2018 14:00:00 23,7 12,9 25 14 - - SW 1016,5 20
20.09.2018 13:00:00 22,0 12,9 25 14 40 21 SW 1017,1 20
20.09.2018 12:00:00 22,8 13,6 18 10 36 19 SSW 1017,2 20
20.09.2018 11:00:00 21,2 14,1 18 10 - - SSW 1017,5 20
20.09.2018 10:00:00 19,8 13,8 18 10 32 18 SW 1017,7 20
20.09.2018 09:00:00 18,6 13,2 11 6 22 12 SSW 1017,7 20
20.09.2018 08:00:00 15,5 12,4 4 2 - - N 1017,7 20
20.09.2018 07:00:00 15,2 12,1 4 2 14 8 N 1017,7 20
20.09.2018 06:00:00 15,5 12,0 4 2 11 6 N 1018,0 20
20.09.2018 05:00:00 15,9 12,0 4 2 - - N 1017,8 20
20.09.2018 04:00:00 15,9 11,9 4 2 11 6 N 1017,8 20
20.09.2018 03:00:00 16,3 12,0 7 4 11 6 SSW 1017,8 20
20.09.2018 02:00:00 16,2 12,0 4 2 - - N 1018,2 20
20.09.2018 01:00:00 18,0 12,1 7 4 14 8 SW 1018,3 20
20.09.2018 00:00:00 18,7 12,2 7 4 14 8 SSW 1018,7 20
19.09.2018 23:00:00 19,2 12,2 11 6 - - SW 1018,7 20

tt = temperature
td = dewpoint
ff = wind speed
fx = gusts
dd = wind direction
ppp = reduced air pressure
vv = visibility

Next stations